Home   Weather   Auxerre   Past weeks

Flag for France Past Weather in Auxerre, Burgundy, France — Yesterday and Last 2 Weeks

Now
18 °F

Ice fog.


Feels Like: 11 °F
Forecast: 17 / 33 °F
Wind: 5 mph from Northwest

Location: Troyes Airport

Current Time: Jan 22, 2017 at 5:01:40 am

Latest Report: Jan 22, 2017 at 4:00 am


Visibility: 3 mi

Pressure: 30.27 "Hg

Humidity: 93%

Dew Point: 16 °F

Location of AuxerreLocation

Past Weather in Auxerre — Graph

°F

Auxerre Temperature Yesterday

Maximum temperature yesterday: 39 °F (at 2:30 pm)
Minimum temperature yesterday: 12 °F (at 6:00 am)
Average temperature yesterday: 23 °F

High & Low Weather Summary for the Past Weeks

 TemperatureHumidityPressure
High48 °F (Jan 11, 3:30 pm)100% (Jan 7, 11:00 pm)30.60 "Hg (Jan 7, 11:00 pm)
Low12 °F (Jan 20, 6:30 am)56% (Jan 18, 4:00 pm)29.36 "Hg (Jan 12, 8:30 pm)
Average32 °F87%30.23 "Hg
* Reported Jan 7 4:00 am — Jan 22 4:00 am, Auxerre, Weather by CustomWeather, © 2017

Note: Actual official high and low records may vary slightly from our data, if they occured in-between our weather recording intervals... More about our weather records

Advertising

Auxerre Weather History for the Previous 24 Hours

Scroll right to see more
 ConditionsComfort  
Time TempWeatherWind HumidityBarometerVisibility
4:00 am
Sun, Jan 22
18 °FIce fog.5 mph93%30.27 "Hg3 mi
3:30 am16 °FIce fog.3 mph100%30.30 "Hg3 mi
3:00 am16 °FIce fog.7 mph93%30.30 "Hg3 mi
2:30 am19 °FIce fog.No wind93%30.30 "Hg3 mi
2:00 am19 °FClear.3 mph100%30.30 "Hg4 mi
1:30 am18 °FIce fog.No wind93%30.30 "Hg3 mi
1:00 am18 °FIce fog.No wind93%30.30 "Hg3 mi
12:30 am18 °FClear.No wind93%30.33 "Hg4 mi
12:00 am19 °FIce fog.No wind93%30.33 "Hg3 mi
11:30 pm
Sat, Jan 21
19 °FClear.No wind93%30.30 "Hg4 mi
11:00 pm19 °FClear.No wind93%30.30 "Hg4 mi
10:30 pm23 °FIce fog.No wind93%30.30 "Hg3 mi
10:00 pm21 °FIce fog.No wind86%30.30 "Hg3 mi
9:30 pm23 °FIce fog.1 mph86%30.30 "Hg3 mi
9:00 pm23 °FIce fog.1 mph93%30.30 "Hg3 mi
8:30 pm25 °FIce fog.1 mph86%30.30 "Hg3 mi
8:00 pm25 °FIce fog.3 mph93%30.30 "Hg3 mi
7:30 pm25 °FIce fog.3 mph93%30.30 "Hg3 mi
7:00 pm27 °FIce fog.2 mph86%30.30 "Hg3 mi
6:30 pm28 °FIce fog.2 mph86%30.30 "Hg3 mi
6:00 pm32 °FClear.1 mph80%30.30 "Hg4 mi
5:00 pm37 °FClear.2 mph70%30.30 "Hg4 mi
4:30 pm37 °FClear.3 mph65%30.30 "Hg5 mi
4:00 pm39 °FClear.3 mph65%30.30 "Hg5 mi
3:30 pm39 °FClear.2 mph61%30.30 "Hg5 mi
3:00 pm39 °FClear.2 mph56%30.30 "Hg5 mi
2:30 pm39 °FClear.2 mph56%30.30 "Hg6 mi
2:00 pm37 °FClear.2 mph60%30.30 "Hg5 mi
1:30 pm36 °FClear.3 mph65%30.33 "Hg5 mi
1:00 pm34 °FClear.3 mph65%30.33 "Hg4 mi
12:30 pm32 °FHaze.1 mph69%30.33 "Hg3 mi
12:00 pm30 °FIce fog.1 mph75%30.36 "Hg3 mi
11:30 am28 °FIce fog.3 mph74%30.36 "Hg3 mi
11:00 am25 °FIce fog.5 mph86%30.36 "Hg3 mi
10:30 am23 °FIce fog.5 mph86%30.36 "Hg3 mi
10:00 am21 °FClear.3 mph93%30.36 "Hg4 mi
9:30 am18 °FClear.No wind93%30.36 "Hg4 mi
9:00 am18 °FClear.1 mph93%30.36 "Hg4 mi
8:30 am16 °FClear.2 mph93%30.36 "Hg4 mi
8:00 am14 °FClear.5 mph92%30.33 "Hg4 mi
7:30 am12 °FClear.3 mph92%30.33 "Hg4 mi
7:00 am14 °FClear.3 mph92%30.33 "Hg4 mi
6:30 am14 °FClear.3 mph92%30.33 "Hg4 mi
6:00 am12 °FClear.3 mph92%30.33 "Hg4 mi
5:30 am14 °FClear.5 mph85%30.33 "Hg4 mi
5:00 am16 °FClear.3 mph93%30.33 "Hg4 mi
Weather by CustomWeather, © 2017

See weather overviewHow to use our weather pages